Regional Weather Roundup
Issued by NWS Wakefield, VA

Home | Current Version | Previous Version | Graphics & Text | Print | Product List | Glossary On
Versions: 1 2 3 4 5 6 7 8 9 10 11 12 13 14 15 16 17 18 19 20 21 22 23 24 25 26 27 28 29 30 31 32 33 34 35 36 37 38 39 40 41 42 43 44 45 46 47 48 49 50
000
ASUS41 KAKQ 271710
RWRAKQ

REGIONAL WEATHER ROUNDUP
NATIONAL WEATHER SERVICE WAKEFIELD VA
100 PM EDT WED AUG 27 2014

Note: "fair" indicates few or no clouds below 12,000 feet with no
significant weather and/or obstructions to visibility. * = Denotes
station may not report precipitation (e.g., rain,snow,etc.),
thunder or fog.

VAZ042-051-052>054-056-271800-
NORTHERN VIRGINIA

CITY           SKY/WX    TMP DP  RH WIND       PRES   REMARKS
WASH NATIONAL  MOSUNNY   86  65  49 S7        30.03F
DULLES         MOSUNNY   82  62  50 S6        30.04F
FORT BELVOIR   SUNNY     85  61  44 VRB2      30.04F
QUANTICO       MOSUNNY   81  67  62 S6        30.05F
FREDERICKSBRG* SUNNY     85  61  44 CALM      30.03F
STAFFORD*      SUNNY     83  64  53 CALM      30.09F
WARRENTON      SUNNY     85  68  56 CALM      30.05F
CULPEPER*      SUNNY    N/A N/A N/A CALM      30.06F
MANASSAS*      SUNNY     82  64  54 CALM      30.05F
LEESBURG*      SUNNY     84  64  51 SW3       30.05F
WINCHESTER     CLOUDY    82  63  51 CALM      30.06F
$$

VAZ048-049-060>072-079>083-271800-
CENTRAL AND SOUTH CENTRAL VIRGINIA...AND NORTH CENTRAL NORTH CAROLINA

CITY           SKY/WX    TMP DP  RH WIND       PRES   REMARKS
RICHMOND       MOSUNNY   85  63  47 NE7       30.04F
CHESTERFIELD*  SUNNY     84  57  39 N7        30.06F
HANOVER        SUNNY     84  62  47 VRB7      30.06F
TAPPAHANNOCK*  SUNNY     84  60  45 N7        30.05F
CHARLOTTSVILLE SUNNY     82  62  50 CALM      30.07F
ORANGE*        SUNNY     82  61  47 W6        30.07F
LOUISA*        SUNNY     82  61  47 CALM      30.05F
FARMVILLE*     SUNNY     84  57  39 E3        30.04F
SOUTH HILL*    SUNNY     82  64  54 N5        30.10F
ROANOKE RAPIDS SUNNY     79  61  53 N6        30.04F
RALEIGH        MOSUNNY   81  62  52 NE8       30.06F
$$

VAZ088>098-271800-
SOUTHEAST VIRGINIA

CITY           SKY/WX    TMP DP  RH WIND       PRES   REMARKS
NORFOLK        MOSUNNY   79  68  69 N10       30.02F
VIRGINIA BEACH PTSUNNY   78  68  71 NE12      30.02F
NORFOLK NAVAL  MOSUNNY   80  68  66 N9        30.04F
WEST POINT*    MOSUNNY   85  62  46 E6        30.05F
NEWPORT NEWS   SUNNY     85  67  54 E7        30.03F
LANGLEY AFB    SUNNY     80  66  63 N8        30.03F
FORT EUSTIS    MOSUNNY   82  61  47 VRB3      30.02F
WILLIAMSBURG*  SUNNY     88  64  45 NE3       30.04F
FRANKLIN*      MOSUNNY   82  64  54 NE6       30.02F
WAKEFIELD      SUNNY     82  60  47 VRB6      30.04F
$$

VAZ020-022-025-037-045-271800-
WESTERN AND SOUTHWEST VIRGINIA

CITY           SKY/WX    TMP DP  RH WIND       PRES   REMARKS
STAUNTON*      SUNNY     81  61  51 N3        30.11F
HOT SPRINGS VA SUNNY     71  56  59 E6        30.25F
LYNCHBURG      SUNNY     81  62  52 VRB3      30.10F
DANVILLE       SUNNY     83  59  44 VRB3      30.08F
MARTINSVILLE   SUNNY     82  61  48 CALM      30.12F
ROANOKE        MOSUNNY   80  62  54 N10       30.13F
BLACKSBURG     SUNNY     75  64  69 CALM      30.18F
DUBLIN*        SUNNY     77  62  60 CALM      30.18F
MARION*        SUNNY    N/A N/A N/A W3        30.21F
HILLSVILLE*    SUNNY     73  60  63 N5        30.19F
RICHLANDS*     SUNNY     78  58  50 N3        30.20F
WISE*          SUNNY     77  55  47 NE8       30.22S
ABINGDON*      SUNNY     80  56  43 CALM      30.18S
$$

MDZ021>025-VAZ099-100-271800-
SOUTHERN MARYLAND AND THE DELMARVA PENINSULA

CITY           SKY/WX    TMP DP  RH WIND       PRES   REMARKS
PATUXENT RIVER MOSUNNY   83  63  50 NE10      30.03F
BAY BRIDGE APT   N/A     81  61  50 W3        30.02F
LEONARDTOWN    SUNNY     81  61  50 NE3       30.05F
DOVER          SUNNY     85  66  53 N6        30.01F
GEORGETOWN     SUNNY     85  62  46 NE9       30.02F
EASTON         SUNNY     86  66  51 CALM      30.06F
CAMBRIDGE      SUNNY     81  64  57 N5        30.02F
SALISBURY      SUNNY     86  62  44 E8        30.02F
OCEAN CITY     SUNNY     78  67  68 E7        30.03F
WALLOPS ISLAND SUNNY     81  67  62 VRB7      30.03F
ACCOMACK*        N/A     81  64  57 NE3       30.02F
$$

NCZ012>017-030>032-271800-
EASTERN NORTH CAROLINA

CITY           SKY/WX    TMP DP  RH WIND       PRES   REMARKS
ELIZABETH CITY MOSUNNY   81  70  69 NE12      30.01F
AHOSKIE*       MOSUNNY   79  66  65 NE8       30.04S
EDENTON*       MOSUNNY   82  69  64 N7        30.01F
CURRITUCK*     PTSUNNY   80  67  66 NE14G20   30.02F
KILL DEVIL HLS CLOUDY    80  72  78 N9G18     29.98F
MANTEO         CLOUDY    80  72  78 N16G23    29.99S
CAPE HATTERAS  PTSUNNY   80  75  84 NE12G23   29.95F
GOLDSBORO      SUNNY     81  69  66 N8        30.01F
WASHINGTON     MOSUNNY   82  69  65 N10       30.01F
GREENVILLE     SUNNY     81  70  69 N10       30.03F
NEW BERN       MOSUNNY   84  71  65 N12G18    30.00F
WILMINGTON     SUNNY     84  68  58 N10       29.99F
$$

VAZ048-271800-
ELSEWHERE

CITY           SKY/WX    TMP DP  RH WIND       PRES   REMARKS
HARRISBURG PA  PTSUNNY   85  68  56 CALM      30.01F
BALTIMORE      MOSUNNY   86  58  38 VRB6      30.02F
ANNAPOLIS      SUNNY     79  67  66 SE9       30.02F
ANDREWS AFB    SUNNY     85  63  47 W5        30.03F
WILMINGTON DE  SUNNY     84  65  52 VRB7      30.01F
PHILADELPHIA   SUNNY     86  62  44 W9        30.00F
WILDWOOD NJ*   SUNNY     81  55  41 NW6       30.03F
ATLANTIC CITY  SUNNY     84  64  50 NW6       30.01F
HENDERSON NC   SUNNY     80  60  51 N7        30.07S
GREENSBORO     MOSUNNY   82  58  43 N7        30.09F
ROCKY MOUNT    SUNNY     81  61  50 N9        30.04F
FAYETTEVILLE   SUNNY     84  58  40 NE8       30.03F
CHARLOTTE      MOSUNNY   82  59  45 N10G16    30.10F
$$

VAZ100-271800-
MARINE

STATION/POSITION TIME  TEMP    WIND        PRES    WAVE   SWELL
                       AIR SEA DIR/SP/G            HT/PER HT/PER
                 (UTC) (F)     (DEG/KT/KT) (MB)    (FT/S) (FT/S)
44066 TX TWR #4  1700   72 74  300/  4/  6 1016.3F   5/11   5/11
CAPE MAY NJ      1700   77 79  280/  4/  6 1016.5F
LEWES DE         1700   76 76  360/  4/  5 1016.6F
15NM E FENWICK I 1700   73 74              1016.6F   4/ 8
OCEAN-CITY-INLET 1700   76 76   90/  6/  8 1016.5F
WACHAPREAGUE VA  1700   76 77   60/  9/ 11 1016.8F
THOMAS POINT MD  1700   78 79  150/  4/  5 1017.6F
GOOSES REEF MD   1700   77      CALM  /  4 1017.8F
COVE POINT MD    1700   77      10/  3/  4 1016.9F
SOLOMONS ISLAND  1700      80                N/A
BISHOPS HEAD MD  1700   81 79   30/  6/  8 1016.4F
PINEY POINT MD   1700          310/  6/  7   N/A
POTOMAC MD       1700   78      40/  6/  8 1016.5F
CAMBRIDGE MD     1700   79 78  360/  2/  4 1016.6F
LEWISETTA VA     1700   79 78   70/  3/  5 1016.8F
RAPPAHANNOCK LGT 1700          350/  9/ 10 1017.5F
STINGRAY PT      1700   76      40/  6/  8   N/A
YORK RVR RNG VA  1700   75      50/ 10/ 10 1016.6F
YORKTOWN VA      1700   76 79   90/ 10/ 11 1016.9F
JAMESTOWN VA     1700   75     200/  4/  6   N/A
DOMINION TERM VA 1700   79      20/  5/  8 1017.1F
KIPTOPEKE VA     1700      80   80/  6/  9   N/A
CHES BAY BRIDGE  1700   75 77   30/  9/ 11 1016.3F
CAPE HENRY VA    1700   74      40/ 11/ 13 1015.8F
CHESAPEAKE LGHT  1600   73      30/ 15/ 17 1017.4F
WILLOUBY STN VA  1700   74      30/  8/ 10 1015.8F
S CRANEY ISL VA  1700          360/  8/ 10 1016.6F
CAPE HENRY BUOY  1700      76                N/A     5/14   2/14
1ST LANDING BUOY 1700   75      50/ 10/ 12 1016.8S
CAPE CHARLES BUO 1700      76                N/A     5/12   5/12
OFFSHORE WE BUOY 1700      76                N/A     6/13   5/13
64NM E OF VA BCH 1700   77 78   30/ 16/ 19 1014.7F   7/15   7/15
DUCK PIER NC     1700   74 76  360/ 18/ 21 1014.9F
44056 DUCK FRF   1700                        N/A     5/15   2/15
OREGON INLET NC  1700   79 77   20/ 15/ 22 1014.9F
HATTERAS NC      1700   78 78   20/ 21/ 26 1014.4F
DIAMOND SHLS NC  1700   78     360/ 23/ 29 1012.3F  10/10   7/10
CAPE LOOKOUT NC  1600   80      10/ 16/ 19 1014.5F
$$


USA.gov is the U.S. government's official web portal to all federal, state and local government web resources and services.